Worthington, MN

10:18 PM CDT on September 30, 2016 (GMT -0500)
Worthington Municipal

Weather History for KOTG - January, 2014

Change the Weather History Date:

Tuesday, January 14, 2014

  Actual Average Record
Temperature  
Mean Temperature 24 °F -  
Max Temperature 35 °F 21 °F 57 °F (1987)
Min Temperature 12 °F 6 °F -25 °F (1972)
Degree Days  
Heating Degree Days 42    
Moisture  
Dew Point 11 °F    
Average Humidity 68    
Maximum Humidity 75    
Minimum Humidity 54    
Precipitation  
Precipitation 0.00 in - - ()
Sea Level Pressure  
Sea Level Pressure 29.92 in    
Wind  
Wind Speed 24 mph (NW)    
Max Wind Speed 41 mph    
Max Gust Speed 50 mph    
Visibility 10 miles    
Events      
Averages and records for this station are not official NWS values.
T = Trace of Precipitation, MM = Missing Value Source: NWS Daily Summary

Daily Weather History Graph

Daily Weather History Graph

Search for Another Location

Airport or City:

Trip Planner

Search our weather history database for the weather conditions in past years. The results will help you decide how hot, cold, wet, or windy it might be!

Date:

Astronomy

Jan. 14, 2014 Rise Set
Actual Time 7:53 AM CST 5:10 PM CST
Civil Twilight 7:21 AM CST 5:41 PM CST
Nautical Twilight 6:45 AM CST 6:17 PM CST
Astronomical Twilight 6:11 AM CST 6:51 PM CST
Moon 4:17 PM CST (1/14) 6:27 AM CST (1/14)
Length of Visible Light 10h 20m
Length of Day
9h 16m
Waxing Gibbous, 98% of the Moon is Illuminated
Jan 14
Waxing Gibbous
Jan 15
Full
Jan 23
Last Quarter
Jan 30
New
Feb 6
First Quarter

Hourly Weather History & Observations

Time (CST) Temp. Windchill Dew Point Humidity Pressure Visibility Wind Dir Wind Speed Gust Speed Precip Events Conditions
12:15 AM 35.6 °F 27.5 °F 26.6 °F 70% 29.48 in 10.0 mi WSW 11.5 mph - N/A   Mostly Cloudy
12:35 AM 35.6 °F 27.1 °F 26.6 °F 70% 29.47 in 10.0 mi WSW 12.7 mph - N/A   Mostly Cloudy
12:55 AM 35.6 °F 25.5 °F 28.4 °F 75% 29.49 in 10.0 mi West 17.3 mph - N/A   Mostly Cloudy
1:15 AM 35.6 °F 24.8 °F 28.4 °F 75% 29.50 in 10.0 mi West 19.6 mph - N/A   Overcast
1:35 AM 35.6 °F 24.5 °F 28.4 °F 75% 29.51 in 9.0 mi WNW 20.7 mph 27.6 mph N/A   Overcast
1:55 AM 35.6 °F 23.7 °F 28.4 °F 75% 29.53 in 10.0 mi NW 24.2 mph 31.1 mph N/A   Overcast
2:15 AM 35.6 °F 23.2 °F 28.4 °F 75% 29.55 in 10.0 mi NW 26.5 mph 35.7 mph N/A   Overcast
2:35 AM 35.6 °F 23.0 °F 28.4 °F 75% 29.58 in 10.0 mi WNW 27.6 mph 35.7 mph N/A   Overcast
2:55 AM - - - N/A% 29.59 in 10.0 mi NW 32.2 mph 35.7 mph N/A   Scattered Clouds
3:15 AM - - - N/A% 29.62 in 10.0 mi NW 32.2 mph 42.6 mph N/A   Mostly Cloudy
3:35 AM - - - N/A% 29.62 in 10.0 mi NW 26.5 mph 40.3 mph N/A   Overcast
3:55 AM - - - N/A% 29.64 in 10.0 mi NW 34.5 mph 41.4 mph N/A   Overcast
4:15 AM - - - N/A% 29.66 in 10.0 mi NW 36.8 mph 42.6 mph N/A   Overcast
4:35 AM - - - N/A% 29.69 in 10.0 mi NW 39.1 mph 48.3 mph N/A   Mostly Cloudy
4:55 AM - - - N/A% 29.71 in 10.0 mi NW 33.4 mph 47.2 mph N/A   Overcast
5:15 AM - - - N/A% 29.72 in 10.0 mi NW 28.8 mph 42.6 mph N/A   Overcast
5:35 AM - - - N/A% 29.73 in 10.0 mi NW 36.8 mph 47.2 mph N/A   Overcast
5:55 AM - - - N/A% 29.75 in 10.0 mi NW 41.4 mph 49.5 mph N/A   Overcast
6:15 AM - - - N/A% 29.76 in 10.0 mi NW 39.1 mph 46.0 mph N/A   Overcast
6:35 AM - - - N/A% 29.77 in 10.0 mi NW 36.8 mph 46.0 mph N/A   Overcast
6:55 AM - - - N/A% 29.78 in 10.0 mi NW 31.1 mph 40.3 mph N/A   Overcast
7:15 AM - - - N/A% 29.80 in 10.0 mi NW 31.1 mph 40.3 mph N/A   Overcast
7:35 AM - - - N/A% 29.81 in 10.0 mi NW 29.9 mph 36.8 mph N/A   Overcast
7:55 AM - - - N/A% 29.83 in 10.0 mi NW 26.5 mph 34.5 mph N/A   Overcast
8:15 AM - - - N/A% 29.84 in 10.0 mi NW 29.9 mph 34.5 mph N/A   Overcast
8:35 AM - - - N/A% 29.85 in 10.0 mi NW 31.1 mph 36.8 mph N/A   Overcast
8:55 AM 24.8 °F 8.4 °F 10.4 °F 54% 29.87 in 10.0 mi NW 27.6 mph 35.7 mph N/A   Overcast
9:15 AM - - - N/A% 29.87 in 10.0 mi NW 26.5 mph 36.8 mph N/A   Mostly Cloudy
9:35 AM 21.2 °F 3.5 °F 12.2 °F 68% 29.90 in 8.0 mi WNW 27.6 mph 31.1 mph N/A   Mostly Cloudy
9:55 AM 21.2 °F 3.9 °F 12.2 °F 68% 29.90 in 10.0 mi WNW 26.5 mph 32.2 mph N/A   Scattered Clouds
10:15 AM 23.0 °F 4.9 °F 12.2 °F 63% 29.91 in 10.0 mi NW 32.2 mph 38.0 mph N/A   Partly Cloudy
10:35 AM - - - N/A% 29.92 in 10.0 mi NW 31.1 mph 42.6 mph N/A   Mostly Cloudy
10:55 AM - - - N/A% 29.93 in 7.0 mi NW 29.9 mph 36.8 mph N/A   Mostly Cloudy
11:15 AM - - - N/A% 29.94 in 9.0 mi NW 34.5 mph 39.1 mph N/A   Mostly Cloudy
11:35 AM - - - N/A% 29.95 in 8.0 mi NW 31.1 mph 36.8 mph N/A   Overcast
11:55 AM - - - N/A% 29.95 in 5.0 mi NNW 31.1 mph 39.1 mph N/A   Overcast
12:15 PM - - - N/A% 29.95 in 7.0 mi NW 31.1 mph 39.1 mph N/A   Mostly Cloudy
12:35 PM - - - N/A% 29.97 in 10.0 mi NW 29.9 mph 34.5 mph N/A   Overcast
12:55 PM - - - N/A% 29.97 in 10.0 mi NNW 29.9 mph 33.4 mph N/A   Overcast
1:15 PM - - - N/A% 29.98 in 10.0 mi NW 28.8 mph 39.1 mph N/A   Mostly Cloudy
1:35 PM - - - N/A% 30.00 in 10.0 mi NNW 29.9 mph 38.0 mph N/A   Mostly Cloudy
1:55 PM - - - N/A% 30.00 in 4.0 mi NW 27.6 mph 34.5 mph N/A   Mostly Cloudy
2:15 PM 19.4 °F 1.1 °F 10.4 °F 68% 30.02 in 7.0 mi NW 27.6 mph 34.5 mph N/A   Partly Cloudy
2:35 PM - - - N/A% 30.03 in 10.0 mi NNW 28.8 mph 36.8 mph N/A   Mostly Cloudy
2:55 PM 19.4 °F 4.5 °F 8.6 °F 63% 30.04 in 3.0 mi NNW 17.3 mph 28.8 mph N/A   Mostly Cloudy
3:15 PM 19.4 °F 1.4 °F 10.4 °F 68% 30.05 in 10.0 mi NW 26.5 mph 32.2 mph N/A   Mostly Cloudy
3:35 PM - - - N/A% 30.06 in 10.0 mi NW 25.3 mph 32.2 mph N/A   Overcast
3:55 PM 19.4 °F 2.1 °F 8.6 °F 63% 30.08 in 10.0 mi NNW 24.2 mph 33.4 mph N/A   Mostly Cloudy
4:15 PM 19.4 °F 3.6 °F 8.6 °F 63% 30.09 in 10.0 mi NNW 19.6 mph 24.2 mph N/A   Mostly Cloudy
4:35 PM - - - N/A% 30.08 in 10.0 mi NNW 26.5 mph 33.4 mph N/A   Overcast
4:55 PM 17.6 °F 0.1 °F 8.6 °F 68% 30.10 in 10.0 mi NNW 23.0 mph 28.8 mph N/A   Overcast
5:15 PM 17.6 °F 0.1 °F 8.6 °F 68% 30.11 in 10.0 mi NNW 23.0 mph - N/A   Mostly Cloudy
5:35 PM - - - N/A% 30.10 in 10.0 mi NNW 25.3 mph 31.1 mph N/A   Overcast
5:55 PM 17.6 °F 1.7 °F 6.8 °F 63% 30.12 in 10.0 mi NNW 18.4 mph - N/A   Overcast
6:15 PM 15.8 °F -0.6 °F 6.8 °F 68% 30.13 in 10.0 mi NNW 18.4 mph - N/A   Overcast
6:35 PM 15.8 °F -0.2 °F 6.8 °F 68% 30.14 in 10.0 mi NNW 17.3 mph - N/A   Overcast
6:55 PM 15.8 °F 0.3 °F 6.8 °F 68% 30.14 in 7.0 mi NNW 16.1 mph - N/A   Scattered Clouds
7:15 PM 15.8 °F 0.3 °F 6.8 °F 68% 30.15 in 10.0 mi North 16.1 mph 21.9 mph N/A   Partly Cloudy
7:35 PM 15.8 °F 0.3 °F 6.8 °F 68% 30.15 in 9.0 mi North 16.1 mph - N/A   Scattered Clouds
7:55 PM 15.8 °F -0.6 °F 5.0 °F 62% 30.15 in 10.0 mi NNW 18.4 mph 24.2 mph N/A   Mostly Cloudy
8:15 PM 14.0 °F -3.0 °F 3.2 °F 62% 30.15 in 10.0 mi NNW 18.4 mph - N/A   Overcast
8:35 PM 14.0 °F -3.0 °F 5.0 °F 67% 30.15 in 10.0 mi North 18.4 mph - N/A   Overcast
8:55 PM 14.0 °F -1.4 °F 5.0 °F 67% 30.16 in 10.0 mi North 15.0 mph - N/A   Overcast
9:15 PM 14.0 °F -0.8 °F 5.0 °F 67% 30.16 in 10.0 mi NNW 13.8 mph - N/A   Overcast
9:35 PM 14.0 °F -1.4 °F 5.0 °F 67% 30.15 in 10.0 mi NNW 15.0 mph - N/A   Overcast
9:55 PM 12.2 °F -3.1 °F 5.0 °F 73% 30.16 in 10.0 mi NNW 13.8 mph - N/A   Overcast
10:15 PM 12.2 °F -0.2 °F 5.0 °F 73% 30.16 in 10.0 mi NNW 9.2 mph - N/A   Overcast
10:35 PM 12.2 °F -2.5 °F 5.0 °F 73% 30.16 in 10.0 mi NNW 12.7 mph - N/A   Overcast
10:55 PM 12.2 °F -4.8 °F 3.2 °F 67% 30.16 in 10.0 mi NNW 17.3 mph - N/A   Overcast
11:15 PM 12.2 °F -5.3 °F 5.0 °F 73% 30.15 in 10.0 mi NNW 18.4 mph - N/A   Overcast
11:35 PM 12.2 °F -4.3 °F 3.2 °F 67% 30.15 in 10.0 mi NNW 16.1 mph 23.0 mph N/A   Overcast
11:55 PM 12.2 °F -5.8 °F 3.2 °F 67% 30.14 in 10.0 mi NNW 19.6 mph 25.3 mph N/A   Overcast